• în România
  • Lista ţărilor
  • Pe 7 zile
  • Temperatura apei
  • Hartă satelitară
  • Meteo pe hartă
  • Widget-uri
  • user-avatar
    Intrare

    Meteo pe oră la Malaya Popiha

    Astăzi, 20 Septembrie, Joi

    Timp Temperatura Precipitaţii Vânt Presiune Umiditate
    00:00 +13°C° 0 mm 3 m/s 738 mmHg 93%
    01:00 +13°C° 0 mm 3 m/s 738 mmHg 94%
    02:00 +14°C° 0 mm 2 m/s 738 mmHg 96%
    03:00 +13°C° 0 mm 3 m/s 738 mmHg 97%
    04:00 +13°C° 0 mm 3 m/s 738 mmHg 97%
    05:00 +13°C° 0 mm 3 m/s 739 mmHg 97%
    06:00 +13°C° 0 mm 3 m/s 739 mmHg 94%
    07:00 +14°C° 0 mm 4 m/s 739 mmHg 91%
    08:00 +14°C° 0 mm 4 m/s 740 mmHg 88%
    09:00 +15°C° 0 mm 4 m/s 740 mmHg 85%
    10:00 +15°C° 0 mm 4 m/s 740 mmHg 83%
    11:00 +15°C° 0 mm 4 m/s 741 mmHg 80%
    12:00 +17°C° 0 mm 4 m/s 741 mmHg 76%
    13:00 +18°C° 0 mm 4 m/s 741 mmHg 72%
    14:00 +19°C° 0 mm 4 m/s 741 mmHg 67%
    15:00 +18°C° 0 mm 3 m/s 741 mmHg 71%
    16:00 +18°C° 0 mm 2 m/s 742 mmHg 75%
    17:00 +17°C° 0 mm 2 m/s 742 mmHg 79%
    18:00 +16°C° 0 mm 2 m/s 742 mmHg 83%
    19:00 +16°C° 0 mm 2 m/s 742 mmHg 87%
    20:00 +15°C° 0 mm 2 m/s 742 mmHg 92%
    21:00 +14°C° 0 mm 2 m/s 742 mmHg 92%
    22:00 +14°C° 0 mm 2 m/s 742 mmHg 93%
    23:00 +14°C° 0 mm 2 m/s 742 mmHg 94%

    Mâine, 21 Septembrie, Vineri

    Timp Temperatura Precipitaţii Vânt Presiune Umiditate
    00:00 +14°C° 0 mm 2 m/s 743 mmHg 95%
    01:00 +14°C° 0 mm 2 m/s 743 mmHg 95%
    02:00 +13°C° 0 mm 2 m/s 743 mmHg 95%
    03:00 +13°C° 0 mm 2 m/s 743 mmHg 96%
    04:00 +13°C° 0 mm 2 m/s 743 mmHg 96%
    05:00 +13°C° 0 mm 2 m/s 743 mmHg 96%
    06:00 +14°C° 0 mm 2 m/s 744 mmHg 91%
    07:00 +15°C° 0 mm 2 m/s 744 mmHg 87%
    08:00 +17°C° 0 mm 3 m/s 744 mmHg 82%
    09:00 +18°C° 0 mm 3 m/s 744 mmHg 77%
    10:00 +20°C° 0 mm 3 m/s 744 mmHg 71%
    11:00 +22°C° 0 mm 3 m/s 744 mmHg 66%
    12:00 +22°C° 0 mm 3 m/s 744 mmHg 63%
    13:00 +23°C° 0 mm 4 m/s 744 mmHg 60%
    14:00 +23°C° 0 mm 4 m/s 744 mmHg 58%
    15:00 +22°C° 0 mm 3 m/s 744 mmHg 64%
    16:00 +21°C° 0 mm 3 m/s 744 mmHg 70%
    17:00 +20°C° 0 mm 2 m/s 744 mmHg 77%
    18:00 +19°C° 0 mm 2 m/s 744 mmHg 81%
    19:00 +19°C° 0 mm 3 m/s 744 mmHg 85%
    20:00 +18°C° 0 mm 3 m/s 744 mmHg 89%
    21:00 +18°C° 0 mm 3 m/s 743 mmHg 90%
    22:00 +17°C° 0 mm 3 m/s 743 mmHg 91%
    23:00 +17°C° 0 mm 3 m/s 743 mmHg 92%

    Poimâine, 22 Septembrie, Sâmbătă

    Timp Temperatura Precipitaţii Vânt Presiune Umiditate
    00:00 +17°C° 0 mm 3 m/s 743 mmHg 92%
    01:00 +17°C° 0 mm 3 m/s 743 mmHg 93%
    02:00 +16°C° 0 mm 3 m/s 742 mmHg 94%
    03:00 +16°C° 0 mm 3 m/s 742 mmHg 94%
    04:00 +16°C° 0 mm 3 m/s 742 mmHg 95%
    05:00 +15°C° 0 mm 4 m/s 741 mmHg 96%
    06:00 +17°C° 0 mm 4 m/s 741 mmHg 90%
    07:00 +17°C° 0 mm 5 m/s 741 mmHg 84%
    08:00 +19°C° 0 mm 5 m/s 740 mmHg 79%
    09:00 +20°C° 0 mm 6 m/s 740 mmHg 72%
    10:00 +22°C° 0 mm 6 m/s 739 mmHg 65%
    11:00 +23°C° 0 mm 7 m/s 739 mmHg 58%
    12:00 +23°C° 0 mm 6 m/s 738 mmHg 55%
    13:00 +24°C° 0 mm 6 m/s 738 mmHg 53%
    14:00 +24°C° 0 mm 6 m/s 738 mmHg 51%
    15:00 +22°C° 0.3 mm 6 m/s 738 mmHg 57%
    16:00 +21°C° 0.3 mm 5 m/s 738 mmHg 64%
    17:00 +20°C° 0.3 mm 5 m/s 738 mmHg 70%
    18:00 +18°C° 0.2 mm 4 m/s 738 mmHg 77%
    19:00 +16°C° 0.2 mm 3 m/s 738 mmHg 83%
    20:00 +13°C° 0.2 mm 3 m/s 738 mmHg 89%
    21:00 +12°C° 0 mm 3 m/s 738 mmHg 89%
    22:00 +13°C° 0 mm 2 m/s 738 mmHg 88%
    23:00 +12°C° 0 mm 2 m/s 738 mmHg 87%

    23 Septembrie, Duminică

    Timp Temperatura Precipitaţii Vânt Presiune Umiditate
    00:00 +12°C° 0.1 mm 2 m/s 738 mmHg 87%
    01:00 +10°C° 0.1 mm 2 m/s 738 mmHg 87%
    02:00 +10°C° 0.1 mm 2 m/s 738 mmHg 87%
    03:00 +10°C° 0.4 mm 2 m/s 738 mmHg 88%
    04:00 +10°C° 0.4 mm 2 m/s 737 mmHg 90%
    05:00 +9°C° 0.4 mm 2 m/s 737 mmHg 91%
    06:00 +9°C° 0.9 mm 2 m/s 737 mmHg 92%
    07:00 +9°C° 0.9 mm 2 m/s 737 mmHg 93%
    08:00 +9°C° 0.9 mm 2 m/s 737 mmHg 93%
    09:00 +9°C° 0.6 mm 2 m/s 737 mmHg 91%
    10:00 +10°C° 0.6 mm 2 m/s 736 mmHg 90%
    11:00 +10°C° 0.6 mm 3 m/s 736 mmHg 88%
    12:00 +10°C° 0.2 mm 3 m/s 736 mmHg 85%
    13:00 +11°C° 0.2 mm 3 m/s 736 mmHg 82%
    14:00 +11°C° 0.2 mm 3 m/s 736 mmHg 79%
    15:00 +11°C° 0 mm 3 m/s 735 mmHg 81%
    16:00 +10°C° 0 mm 2 m/s 735 mmHg 83%
    17:00 +10°C° 0 mm 2 m/s 735 mmHg 84%
    18:00 +9°C° 0 mm 2 m/s 735 mmHg 87%
    19:00 +8°C° 0 mm 2 m/s 735 mmHg 89%
    20:00 +8°C° 0 mm 2 m/s 735 mmHg 92%
    21:00 +7°C° 0 mm 3 m/s 735 mmHg 92%
    22:00 +7°C° 0 mm 3 m/s 735 mmHg 92%
    23:00 +7°C° 0 mm 3 m/s 735 mmHg 91%

    24 Septembrie, Luni

    Timp Temperatura Precipitaţii Vânt Presiune Umiditate
    00:00 +7°C° 0 mm 3 m/s 735 mmHg 92%
    01:00 +5°C° 0 mm 3 m/s 735 mmHg 93%
    02:00 +5°C° 0 mm 3 m/s 735 mmHg 94%
    03:00 +5°C° 0 mm 3 m/s 735 mmHg 95%
    04:00 +5°C° 0 mm 3 m/s 735 mmHg 95%
    05:00 +4°C° 0 mm 3 m/s 735 mmHg 96%
    06:00 +5°C° 0 mm 3 m/s 735 mmHg 93%
    07:00 +7°C° 0 mm 3 m/s 735 mmHg 89%
    08:00 +8°C° 0 mm 3 m/s 735 mmHg 86%
    09:00 +9°C° 0 mm 3 m/s 735 mmHg 80%
    10:00 +10°C° 0 mm 3 m/s 735 mmHg 75%
    11:00 +11°C° 0 mm 3 m/s 735 mmHg 69%
    12:00 +11°C° 0.1 mm 4 m/s 734 mmHg 69%
    13:00 +11°C° 0.1 mm 4 m/s 733 mmHg 70%
    14:00 +11°C° 0.1 mm 4 m/s 732 mmHg 70%
    15:00 +10°C° 0.9 mm 4 m/s 732 mmHg 76%
    16:00 +8°C° 0.9 mm 4 m/s 731 mmHg 82%
    17:00 +7°C° 0.9 mm 4 m/s 730 mmHg 88%
    18:00 +7°C° 2 mm 5 m/s 729 mmHg 90%
    19:00 +7°C° 2 mm 5 m/s 728 mmHg 91%
    20:00 +7°C° 2 mm 6 m/s 726 mmHg 92%
    21:00 +7°C° 2.4 mm 6 m/s 725 mmHg 92%
    22:00 +7°C° 2.4 mm 6 m/s 723 mmHg 93%
    23:00 +7°C° 2.4 mm 5 m/s 722 mmHg 93%

    25 Septembrie, Marţi

    Timp Temperatura Precipitaţii Vânt Presiune Umiditate
    00:00 +7°C° 1.7 mm 5 m/s 721 mmHg 93%
    01:00 +7°C° 1.7 mm 4 m/s 720 mmHg 93%
    02:00 +8°C° 1.7 mm 3 m/s 719 mmHg 93%
    03:00 +8°C° 0.2 mm 3 m/s 719 mmHg 93%
    04:00 +8°C° 0.2 mm 2 m/s 719 mmHg 94%
    05:00 +7°C° 0.2 mm 2 m/s 718 mmHg 94%
    06:00 +8°C° 0.4 mm 2 m/s 718 mmHg 94%
    07:00 +8°C° 0.4 mm 2 m/s 719 mmHg 93%
    08:00 +8°C° 0.4 mm 2 m/s 719 mmHg 93%
    09:00 +8°C° 0.7 mm 3 m/s 720 mmHg 91%
    10:00 +7°C° 0.7 mm 4 m/s 720 mmHg 90%
    11:00 +7°C° 0.7 mm 5 m/s 721 mmHg 89%
    12:00 +5°C° 0.7 mm 6 m/s 722 mmHg 88%
    13:00 +5°C° 0.7 mm 7 m/s 723 mmHg 87%
    14:00 +4°C° 0.7 mm 8 m/s 725 mmHg 86%
    15:00 +4°C° 0.7 mm 8 m/s 726 mmHg 86%
    16:00 +4°C° 0.7 mm 8 m/s 727 mmHg 85%
    17:00 +3°C° 0.7 mm 9 m/s 728 mmHg 84%
    18:00 +2°C° 0.3 mm 8 m/s 730 mmHg 84%
    19:00 +2°C° 0.3 mm 8 m/s 731 mmHg 83%
    20:00 +2°C° 0.3 mm 8 m/s 732 mmHg 82%
    21:00 +2°C° 0.1 mm 7 m/s 733 mmHg 81%
    22:00 +2°C° 0.1 mm 7 m/s 734 mmHg 79%
    23:00 +2°C° 0.1 mm 6 m/s 735 mmHg 78%
    Arată mai mult